Regional Weather Roundup
Issued by NWS

Home | Current Version | Previous Version | Graphics & Text | Print | Product List | Glossary On
Versions: 1 2 3 4 5 6 7 8 9 10 11 12 13 14 15 16 17 18 19 20 21 22 23 24 25 26 27
000
ASUS45 KBOI 241910
RWRID

IDAHO REGIONAL WEATHER ROUNDUP
NATIONAL WEATHER SERVICE BOISE ID
100 PM MDT SAT JUN 24 2017

NOTE: "FAIR" INDICATES FEW OR NO CLOUDS BELOW 12000 FEET
WITH NO SIGNIFICANT WEATHER AND/OR OBSTRUCTIONS TO VISIBILITY

IDZ012-014-242000-
SOUTHWEST IDAHO


CITY           SKY/WX    TMP DP  RH WIND       PRES   REMARKS
BOISE          SUNNY     80  40  23 N8        30.18F
CALDWELL       SUNNY     80  42  25 NW6       30.18F
MOUNTAIN HOME  SUNNY     83  37  19 NW5       30.18F HAZE
$$

IDZ016-017-242000-
SOUTHCENTRAL IDAHO


CITY           SKY/WX    TMP DP  RH WIND       PRES   REMARKS
BURLEY         SUNNY     76  42  29 VRB6      30.22F
JEROME         SUNNY     76  37  24 SW8       30.24S
TWIN FALLS     SUNNY     77  39  25 W12       30.23F
$$

IDZ019>023-242000-
SOUTHEAST IDAHO


CITY           SKY/WX    TMP DP  RH WIND       PRES   REMARKS
IDAHO FALLS    SUNNY     75  39  27 VRB3      30.28S
POCATELLO      MOSUNNY   75  28  17 VRB3      30.27S
REXBURG        SUNNY     73  39  29 NW6       30.28S
$$

IDZ006-010-011-018-031-032-242000-
CENTRAL IDAHO MOUNTAINS


CITY           SKY/WX    TMP DP  RH WIND       PRES   REMARKS
MCCALL         SUNNY     72  33  24 W6        30.27S
HAILEY         SUNNY     73  46  38 SE7       30.29F
STANLEY          N/A     74  30  19 N5        30.33F
SALMON         SUNNY     73  39  29 N5        30.24F
CHALLIS        SUNNY     75  35  23 CALM      30.26F
$$

IDZ002-004-006-007-026-242000-
NORTHERN IDAHO


CITY           SKY/WX    TMP DP  RH WIND       PRES   REMARKS
LEWISTON       SUNNY     80  44  27 VRB5      30.19F
LOWELL           N/A     80  46  30 VRB3      30.16F
COEUR D`ALENE  SUNNY     78  46  32 N7        30.24F
MULLAN PASS    SUNNY     65  31  28 CALM      30.38S
$$




USA.gov is the U.S. government's official web portal to all federal, state and local government web resources and services.